GW3962 Weather Reports


Display with metric or nautical units.
time (UTC)temp
F
wind
direction
speed
MPH
gust
MPH
rain 1hr
in
rain 24hr
in
rain mn
in
humidity
%
barometer
mb
20260902225927 98 296 1.0 1.0 0.00 0.00 0.00 40 1012.0
20260902225417 96 308 1.0 2.0 0.00 0.00 0.00 42 1012.4
20260902224915 96 297 1.0 1.0 0.00 0.00 0.00 42 1012.2
20260902224409 98 298 3.0 5.0 0.00 0.00 0.00 41 1012.3
20260902223906 100 305 1.0 2.0 0.00 0.00 0.00 38 1012.1
20260902223407 99 283 1.0 2.0 0.00 0.00 0.00 39 1012.2
20260902222901 98 280 2.0 2.0 0.00 0.00 0.00 39 1012.1
20260902222400 97 299 1.0 2.0 0.00 0.00 0.00 41 1012.5
20260902221900 98 280 1.0 1.0 0.00 0.00 0.00 40 1012.3
20260902221359 98 280 2.0 2.0 0.00 0.00 0.00 40 1012.3
20260902220855 99 303 2.0 2.0 0.00 0.00 0.00 39 1012.4
20260902220354 99 299 1.0 1.0 0.00 0.00 0.00 39 1012.3
20260902215849 98 212 5.0 6.0 0.00 0.00 0.00 40 1012.3
20260902215344 98 222 6.0 7.0 0.00 0.00 0.00 39 1012.5
20260902214840 97 189 5.0 6.0 0.00 0.00 0.00 40 1012.4
20260902214339 98 206 7.0 9.0 0.00 0.00 0.00 40 1012.9
20260902213834 98 202 4.0 5.0 0.00 0.00 0.00 40 1012.6
20260902213330 98 209 2.0 3.0 0.00 0.00 0.00 40 1012.6
20260902212828 98 212 3.0 3.0 0.00 0.00 0.00 40 1012.6
20260902212325 96 286 2.0 2.0 0.00 0.00 0.00 41 1012.7
20260902211822 96 234 3.0 3.0 0.00 0.00 0.00 43 1012.7
20260902211317 96 209 4.0 5.0 0.00 0.00 0.00 42 1012.9
20260902210812 97 268 5.0 6.0 0.00 0.00 0.00 42 1012.6
20260902210306 97 200 6.0 7.0 0.00 0.00 0.00 41 1012.9
20260902205804 96 302 3.0 3.0 0.00 0.00 0.00 43 1012.9
20260902205259 96 270 3.0 3.0 0.00 0.00 0.00 43 1013.1
20260902204754 96 287 2.0 2.0 0.00 0.00 0.00 44 1013.3
20260902204250 96 263 2.0 2.0 0.00 0.00 0.00 43 1013.2
20260902203745 96 227 3.0 5.0 0.00 0.00 0.00 43 1013.3
20260902203245 96 308 1.0 1.0 0.00 0.00 0.00 43 1013.3
20260902202740 95 290 1.0 1.0 0.00 0.00 0.00 44 1013.5
20260902202236 95 227 4.0 5.0 0.00 0.00 0.00 44 1013.4
20260902201733 95 217 3.0 5.0 0.00 0.00 0.00 44 1013.5
20260902201232 96 229 3.0 5.0 0.00 0.00 0.00 43 1013.8
20260902200727 98 204 7.0 9.0 0.00 0.00 0.00 42 1013.7
20260902200223 96 338 2.0 2.0 0.00 0.00 0.00 43 1013.7
20260902195718 98 272 2.0 2.0 0.00 0.00 0.00 41 1014.0
20260902195217 99 215 5.0 6.0 0.00 0.00 0.00 40 1014.0
20260902194717 99 292 1.0 2.0 0.00 0.00 0.00 40 1013.8
20260902194212 97 246 2.0 2.0 0.00 0.00 0.00 42 1014.1
20260902193707 97 306 0.0 1.0 0.00 0.00 0.00 42 1014.0
20260902193203 97 346 1.0 1.0 0.00 0.00 0.00 42 1014.1
20260902192701 96 326 0.0 0.0 0.00 0.00 0.00 43 1014.2
20260902192200 96 3 1.0 1.0 0.00 0.00 0.00 43 1014.2
20260902191655 95 131 3.0 3.0 0.00 0.00 0.00 43 1014.3
20260902191149 96 81 2.0 3.0 0.00 0.00 0.00 43 1014.5
20260902190645 96 319 1.0 2.0 0.00 0.00 0.00 43 1014.6
20260902190140 96 343 1.0 1.0 0.00 0.00 0.00 42 1014.7
20260902185635 98 325 2.0 5.0 0.00 0.00 0.00 42 1014.7
20260902185131 97 146 3.0 5.0 0.00 0.00 0.00 42 1014.8
20260902184626 98 112 4.0 6.0 0.00 0.00 0.00 40 1014.7
20260902184122 99 139 4.0 6.0 0.00 0.00 0.00 41 1014.9
20260902183618 100 26 3.0 3.0 0.00 0.00 0.00 39 1014.9
20260902183114 97 314 1.0 2.0 0.00 0.00 0.00 42 1015.0
20260902182610 93 325 2.0 2.0 0.00 0.00 0.00 47 1015.2
20260902182106 93 341 7.0 9.0 0.00 0.00 0.00 47 1015.3
20260902181602 95 335 7.0 9.0 0.00 0.00 0.00 45 1015.4
20260902181101 95 209 3.0 3.0 0.00 0.00 0.00 45 1015.5
20260902180601 96 204 5.0 7.0 0.00 0.00 0.00 45 1015.4
20260902180057 95 293 2.0 2.0 0.00 0.00 0.00 46 1015.5
20260902175556 94 205 7.0 8.0 0.00 0.00 0.00 47 1015.8
20260902175052 95 170 4.0 6.0 0.00 0.00 0.00 47 1015.8
20260902174549 96 251 2.0 3.0 0.00 0.00 0.00 46 1015.9
20260902174044 95 210 1.0 2.0 0.00 0.00 0.00 47 1016.2
20260902173543 94 302 1.0 1.0 0.00 0.00 0.00 47 1016.1
20260902173038 95 268 6.0 8.0 0.00 0.00 0.00 47 1016.2
20260902172533 95 220 3.0 5.0 0.00 0.00 0.00 46 1016.4
20260902172028 93 46 0.0 1.0 0.00 0.00 0.00 49 1016.3
20260902171524 93 201 6.0 9.0 0.00 0.00 0.00 49 1016.3
20260902171020 93 277 1.0 1.0 0.00 0.00 0.00 49 1016.6
20260902170514 95 310 2.0 2.0 0.00 0.00 0.00 47 1016.6
20260902170011 94 327 6.0 7.0 0.00 0.00 0.00 48 1016.6
20260902165509 93 190 5.0 6.0 0.00 0.00 0.00 51 1016.6
20260902165004 93 284 4.0 5.0 0.00 0.00 0.00 50 1016.8
20260902164459 91 243 2.0 3.0 0.00 0.00 0.00 53 1016.9
20260902163958 91 260 3.0 3.0 0.00 0.00 0.00 53 1017.0
20260902163454 91 277 3.0 5.0 0.00 0.00 0.00 54 1016.9
20260902162951 91 296 2.0 3.0 0.00 0.00 0.00 53 1016.8
20260902162446 90 303 5.0 6.0 0.00 0.00 0.00 54 1017.1
20260902161941 90 265 3.0 3.0 0.00 0.00 0.00 55 1016.9
20260902161436 90 228 5.0 6.0 0.00 0.00 0.00 54 1016.9
20260902160932 90 298 4.0 5.0 0.00 0.00 0.00 54 1016.9
20260902160427 90 239 3.0 3.0 0.00 0.00 0.00 54 1017.2
20260902155925 89 196 3.0 3.0 0.00 0.00 0.00 56 1017.0
20260902155420 89 306 2.0 2.0 0.00 0.00 0.00 56 1016.8
20260902154915 89 275 3.0 3.0 0.00 0.00 0.00 56 1016.9
20260902154410 88 300 2.0 3.0 0.00 0.00 0.00 57 1017.1
20260902153909 88 232 4.0 5.0 0.00 0.00 0.00 58 1017.0
20260902153408 87 248 4.0 5.0 0.00 0.00 0.00 58 1017.0
20260902152904 87 274 4.0 5.0 0.00 0.00 0.00 58 1016.9
20260902152400 86 270 5.0 6.0 0.00 0.00 0.00 61 1017.0
20260902151855 86 237 3.0 5.0 0.00 0.00 0.00 61 1017.1
20260902151350 87 323 5.0 8.0 0.00 0.00 0.00 60 1017.3
20260902150845 87 284 2.0 2.0 0.00 0.00 0.00 61 1017.1
20260902150342 86 294 5.0 7.0 0.00 0.00 0.00 61 1016.9
20260902145841 86 287 2.0 2.0 0.00 0.00 0.00 62 1016.9
20260902145336 87 212 4.0 6.0 0.00 0.00 0.00 61 1017.1
20260902144831 86 298 6.0 7.0 0.00 0.00 0.00 61 1016.7
20260902144327 86 268 6.0 7.0 0.00 0.00 0.00 62 1016.7
20260902143821 85 231 5.0 7.0 0.00 0.00 0.00 64 1016.8
20260902143316 85 224 5.0 8.0 0.00 0.00 0.00 64 1016.9
20260902142812 85 239 3.0 5.0 0.00 0.00 0.00 64 1016.9
20260902142308 84 289 4.0 5.0 0.00 0.00 0.00 64 1016.9
20260902141803 83 235 5.0 6.0 0.00 0.00 0.00 69 1016.8
20260902141258 83 213 5.0 7.0 0.00 0.00 0.00 70 1016.8
20260902140752 82 274 3.0 5.0 0.00 0.00 0.00 71 1017.0
20260902140248 82 251 3.0 3.0 0.00 0.00 0.00 71 1016.8
20260902135747 81 206 3.0 5.0 0.00 0.00 0.00 73 1016.9
20260902135243 81 263 5.0 6.0 0.00 0.00 0.00 74 1016.9
20260902134742 80 284 1.0 2.0 0.00 0.00 0.00 75 1017.0
20260902134237 80 241 3.0 5.0 0.00 0.00 0.00 75 1016.8
20260902133733 79 236 3.0 6.0 0.00 0.00 0.00 76 1016.9
20260902133231 79 257 3.0 3.0 0.00 0.00 0.00 77 1016.8
20260902132727 79 226 3.0 3.0 0.00 0.00 0.00 78 1016.6
20260902132217 78 263 4.0 5.0 0.00 0.00 0.00 78 1016.8
20260902131712 78 266 3.0 3.0 0.00 0.00 0.00 79 1016.5
20260902131208 77 270 3.0 3.0 0.00 0.00 0.00 79 1016.3
20260902130703 77 226 4.0 5.0 0.00 0.00 0.00 80 1016.3
20260902130159 77 278 2.0 3.0 0.00 0.00 0.00 80 1016.4
20260902125654 76 238 3.0 3.0 0.00 0.00 0.00 81 1016.2
20260902125150 76 272 2.0 2.0 0.00 0.00 0.00 81 1016.2
20260902124646 76 279 2.0 2.0 0.00 0.00 0.00 81 1016.3
20260902124146 76 271 2.0 2.0 0.00 0.00 0.00 81 1016.2
20260902123637 75 286 1.0 2.0 0.00 0.00 0.00 82 1016.1
20260902123136 75 263 1.0 2.0 0.00 0.00 0.00 82 1016.3
20260902122631 75 291 1.0 1.0 0.00 0.00 0.00 83 1015.9
20260902122126 75 293 1.0 1.0 0.00 0.00 0.00 83 1015.9
20260902121621 75 281 1.0 1.0 0.00 0.00 0.00 83 1015.9
20260902121121 75 287 1.0 1.0 0.00 0.00 0.00 82 1016.1
20260902120617 76 285 1.0 1.0 0.00 0.00 0.00 81 1015.7
20260902120114 76 277 2.0 2.0 0.00 0.00 0.00 80 1015.9
20260902115609 76 239 3.0 3.0 0.00 0.00 0.00 80 1015.8
20260902115105 76 237 3.0 3.0 0.00 0.00 0.00 80 1016.1
20260902114601 76 285 1.0 1.0 0.00 0.00 0.00 80 1015.6
20260902114100 76 287 1.0 1.0 0.00 0.00 0.00 80 1015.6
20260902113555 76 286 1.0 1.0 0.00 0.00 0.00 80 1015.8
20260902113050 76 286 1.0 1.0 0.00 0.00 0.00 80 1015.8
20260902112545 77 286 0.0 1.0 0.00 0.00 0.00 79 1015.6
20260902112043 77 259 2.0 2.0 0.00 0.00 0.00 78 1015.8
20260902111538 77 278 1.0 1.0 0.00 0.00 0.00 79 1016.2
20260902111033 76 260 2.0 2.0 0.00 0.00 0.00 80 1015.7
20260902110530 76 264 2.0 2.0 0.00 0.00 0.00 80 1015.8
20260902110026 76 278 1.0 1.0 0.00 0.00 0.00 80 1015.8
20260902105525 77 263 1.0 2.0 0.00 0.00 0.00 79 1016.1
20260902105020 76 249 2.0 2.0 0.00 0.00 0.00 79 1015.8
20260902104515 76 264 2.0 2.0 0.00 0.00 0.00 80 1015.7
20260902104010 76 283 1.0 2.0 0.00 0.00 0.00 79 1015.5
20260902103505 77 278 1.0 1.0 0.00 0.00 0.00 79 1015.9
20260902103000 77 278 1.0 1.0 0.00 0.00 0.00 78 1015.8
20260902102457 77 275 1.0 1.0 0.00 0.00 0.00 77 1015.8
20260902101953 77 267 0.0 1.0 0.00 0.00 0.00 76 1015.7
20260902101448 78 267 1.0 1.0 0.00 0.00 0.00 76 1015.9
20260902100947 78 267 1.0 1.0 0.00 0.00 0.00 75 1015.9
20260902100442 78 267 1.0 1.0 0.00 0.00 0.00 75 1015.9
20260902095941 78 267 1.0 1.0 0.00 0.00 0.00 75 1015.9
20260902095436 78 267 0.0 0.0 0.00 0.00 0.00 75 1015.7
20260902094935 78 267 0.0 0.0 0.00 0.00 0.00 76 1015.9
20260902094431 79 267 0.0 0.0 0.00 0.00 0.00 75 1015.7
20260902093926 79 267 1.0 1.0 0.00 0.00 0.00 74 1015.7
20260902093421 79 266 0.0 1.0 0.00 0.00 0.00 74 1015.7
20260902092920 79 266 1.0 1.0 0.00 0.00 0.00 74 1015.9
20260902092410 79 262 2.0 2.0 0.00 0.00 0.00 74 1016.1
20260902091904 79 253 2.0 2.0 0.00 0.00 0.00 74 1015.9
20260902091354 79 284 1.0 2.0 0.00 0.00 0.00 74 1015.7
20260902090851 80 266 2.0 2.0 0.00 0.00 0.00 74 1015.6
20260902090351 80 241 3.0 3.0 0.00 0.00 0.00 74 1016.1
20260902085849 80 207 3.0 3.0 0.00 0.00 0.00 74 1016.2
20260902085345 80 238 3.0 3.0 0.00 0.00 0.00 74 1015.7
20260902084840 80 216 3.0 3.0 0.00 0.00 0.00 75 1015.9
20260902084337 80 237 3.0 3.0 0.00 0.00 0.00 74 1015.8
20260902083831 80 245 2.0 2.0 0.00 0.00 0.00 74 1015.9
20260902083325 80 225 3.0 3.0 0.00 0.00 0.00 74 1016.1
20260902082820 80 225 3.0 3.0 0.00 0.00 0.00 74 1015.8
20260902082317 80 187 2.0 3.0 0.00 0.00 0.00 74 1016.1
20260902081813 80 189 4.0 5.0 0.00 0.00 0.00 74 1015.9
20260902081309 80 207 5.0 5.0 0.00 0.00 0.00 73 1015.9
20260902080803 81 237 3.0 3.0 0.00 0.00 0.00 74 1015.9
20260902080301 81 212 3.0 5.0 0.00 0.00 0.00 74 1016.1
20260902075759 81 233 3.0 3.0 0.00 0.00 0.00 74 1015.7
20260902075255 81 191 5.0 6.0 0.00 0.00 0.00 74 1015.9
20260902074750 81 214 4.0 5.0 0.00 0.00 0.00 74 1016.1
20260902074246 81 243 4.0 5.0 0.00 0.00 0.00 75 1016.1
20260902073741 81 197 4.0 5.0 0.00 0.00 0.00 74 1016.2
20260902073236 81 292 1.0 2.0 0.00 0.00 0.00 74 1016.3
20260902072733 81 240 2.0 2.0 0.00 0.00 0.00 74 1016.3
20260902072228 81 187 3.0 5.0 0.00 0.00 0.00 74 1016.1
20260902071725 81 206 3.0 3.0 0.00 0.00 0.00 74 1016.4
20260902071219 81 185 4.0 5.0 0.00 0.00 0.00 74 1016.2
20260902070716 81 237 2.0 3.0 0.00 0.00 0.00 74 1016.4
20260902070215 81 181 3.0 3.0 0.00 0.00 0.00 74 1016.4
20260902065714 81 202 3.0 3.0 0.00 0.00 0.00 74 1016.3
20260902065210 82 203 3.0 3.0 0.00 0.00 0.00 73 1016.4
20260902064705 82 196 3.0 5.0 0.00 0.00 0.00 73 1016.2
20260902064200 82 207 4.0 5.0 0.00 0.00 0.00 73 1016.3
20260902063656 82 194 4.0 6.0 0.00 0.00 0.00 73 1016.5
20260902063150 82 205 3.0 3.0 0.00 0.00 0.00 73 1016.3
20260902062650 82 228 3.0 3.0 0.00 0.00 0.00 73 1016.3
20260902062145 82 250 3.0 3.0 0.00 0.00 0.00 73 1016.3
20260902061644 82 231 3.0 3.0 0.00 0.00 0.00 72 1016.1
20260902061140 83 223 5.0 6.0 0.00 0.00 0.00 72 1016.3
20260902060636 83 194 4.0 5.0 0.00 0.00 0.00 71 1016.3
20260902060132 83 196 3.0 5.0 0.00 0.00 0.00 72 1016.4
20260902055628 83 250 3.0 3.0 0.00 0.00 0.00 71 1016.3
20260902055123 83 189 5.0 7.0 0.00 0.00 0.00 71 1016.2
20260902054617 83 210 5.0 6.0 0.00 0.00 0.00 71 1016.3
20260902054113 84 195 5.0 6.0 0.00 0.00 0.00 70 1016.5
20260902053608 84 221 5.0 7.0 0.00 0.00 0.00 70 1016.2
20260902053103 84 171 5.0 6.0 0.00 0.00 0.00 69 1016.2
20260902052603 84 199 5.0 6.0 0.00 0.00 0.00 69 1016.1
20260902052058 84 207 4.0 5.0 0.00 0.00 0.00 69 1016.3
20260902051558 84 220 6.0 7.0 0.00 0.00 0.00 68 1016.1
20260902051057 85 224 3.0 5.0 0.00 0.00 0.00 67 1016.3
20260902050552 85 193 6.0 7.0 0.00 0.00 0.00 66 1015.9
20260902050048 85 203 6.0 8.0 0.00 0.00 0.00 66 1016.2
20260902045543 85 196 5.0 7.0 0.00 0.00 0.00 66 1016.3
20260902045039 85 212 3.0 3.0 0.00 0.00 0.00 65 1016.2
20260902044539 86 190 5.0 7.0 0.00 0.00 0.00 65 1016.2
20260902044035 86 179 8.0 11.0 0.00 0.00 0.00 64 1016.3
20260902043530 86 141 4.0 6.0 0.00 0.00 0.00 64 1016.2
20260902043025 86 163 6.0 7.0 0.00 0.00 0.00 63 1015.9
20260902042524 86 181 5.0 8.0 0.00 0.00 0.00 63 1016.2
20260902042019 86 216 4.0 5.0 0.00 0.00 0.00 62 1016.3
20260902041514 86 206 3.0 5.0 0.00 0.00 0.00 62 1016.3
20260902041009 87 205 2.0 2.0 0.00 0.00 0.00 61 1015.9
20260902040509 87 185 4.0 5.0 0.00 0.00 0.00 60 1015.9
20260902040008 87 166 4.0 5.0 0.00 0.00 0.00 60 1016.2
20260902035502 87 103 3.0 3.0 0.00 0.00 0.00 61 1016.2
20260902034956 87 120 4.0 6.0 0.00 0.00 0.00 60 1015.8
20260902034451 87 181 3.0 3.0 0.00 0.00 0.00 60 1015.9
20260902033950 87 217 3.0 3.0 0.00 0.00 0.00 60 1015.7
20260902033450 87 167 2.0 3.0 0.00 0.00 0.00 60 1015.6
20260902032948 87 189 3.0 3.0 0.00 0.00 0.00 59 1015.8
20260902032443 87 129 3.0 5.0 0.00 0.00 0.00 59 1015.5
20260902031933 88 151 4.0 6.0 0.00 0.00 0.00 59 1015.6
20260902031428 88 212 2.0 3.0 0.00 0.00 0.00 59 1015.5
20260902030924 88 193 4.0 6.0 0.00 0.00 0.00 58 1015.4
20260902030419 88 219 4.0 5.0 0.00 0.00 0.00 58 1015.2
20260902025917 88 231 3.0 5.0 0.00 0.00 0.00 58 1015.3
20260902025413 88 181 4.0 5.0 0.00 0.00 0.00 57 1015.1
20260902024908 88 193 4.0 7.0 0.00 0.00 0.00 57 1015.0
20260902024403 89 195 3.0 3.0 0.00 0.00 0.00 56 1015.0
20260902023858 89 203 4.0 6.0 0.00 0.00 0.00 56 1015.2
20260902023354 89 124 3.0 3.0 0.00 0.00 0.00 55 1015.0
20260902022853 89 137 4.0 6.0 0.00 0.00 0.00 54 1014.8
20260902022348 89 127 8.0 10.0 0.00 0.00 0.00 54 1014.6
20260902021844 89 162 4.0 5.0 0.00 0.00 0.00 53 1014.6
20260902021339 90 126 5.0 6.0 0.00 0.00 0.00 52 1014.5
20260902020835 90 282 3.0 3.0 0.00 0.00 0.00 52 1014.4
20260902020331 90 107 5.0 6.0 0.00 0.00 0.00 51 1014.4
20260902015826 90 146 3.0 5.0 0.00 0.00 0.00 50 1014.5
20260902015322 91 117 4.0 6.0 0.00 0.00 0.00 50 1014.1
20260902014817 91 92 4.0 5.0 0.00 0.00 0.00 49 1014.4
20260902014314 91 6 2.0 2.0 0.00 0.00 0.00 49 1014.2
20260902013812 91 87 2.0 3.0 0.00 0.00 0.00 49 1014.1
20260902013308 91 133 4.0 6.0 0.00 0.00 0.00 49 1014.1
20260902012803 91 81 5.0 6.0 0.00 0.00 0.00 48 1013.8
20260902012259 91 105 3.0 6.0 0.00 0.00 0.00 49 1013.8
20260902011754 91 128 5.0 7.0 0.00 0.00 0.00 49 1014.1
20260902011254 92 112 5.0 8.0 0.00 0.00 0.00 48 1013.9
20260902010748 92 94 5.0 6.0 0.00 0.00 0.00 48 1013.8
20260902010244 92 339 3.0 5.0 0.00 0.00 0.00 47 1013.8
20260902005742 92 111 2.0 2.0 0.00 0.00 0.00 47 1013.8
20260902005237 93 90 4.0 5.0 0.00 0.00 0.00 46 1013.9
20260902004737 93 67 4.0 7.0 0.00 0.00 0.00 45 1013.7
20260902004232 93 332 1.0 1.0 0.00 0.00 0.00 45 1014.1
20260902003727 93 38 3.0 3.0 0.00 0.00 0.00 45 1013.9
20260902003222 93 75 4.0 7.0 0.00 0.00 0.00 45 1014.0
20260902002713 94 90 5.0 6.0 0.00 0.00 0.00 45 1014.0
20260902002212 94 94 3.0 7.0 0.00 0.00 0.00 45 1014.0
20260902001708 94 98 4.0 5.0 0.00 0.00 0.00 45 1014.0
20260902001208 94 48 4.0 6.0 0.00 0.00 0.00 45 1014.1
20260902000703 95 63 7.0 9.0 0.00 0.00 0.00 44 1014.0
20260902000158 95 95 5.0 7.0 0.00 0.00 0.00 44 1014.0
20260901235657 95 59 3.0 5.0 0.00 0.00 0.00 45 1014.1
20260901235153 95 72 5.0 7.0 0.00 0.00 0.00 44 1013.7
20260901234652 95 90 3.0 7.0 0.00 0.00 0.00 44 1014.1
20260901234147 96 102 6.0 8.0 0.00 0.00 0.00 44 1013.9
20260901233642 96 84 2.0 3.0 0.00 0.00 0.00 44 1013.9
20260901233138 95 247 1.0 2.0 0.00 0.00 0.00 44 1014.0
20260901232638 96 119 7.0 10.0 0.00 0.00 0.00 44 1014.0
20260901232133 95 80 7.0 8.0 0.00 0.00 0.00 43 1014.1
20260901231630 95 42 1.0 2.0 0.00 0.00 0.00 44 1014.0
20260901231126 95 94 8.0 10.0 0.00 0.00 0.00 44 1013.8
20260901230621 95 128 5.0 7.0 0.00 0.00 0.00 44 1013.9